Flag for Germany Weather past 2 weeks in Neustadt am Rübenberge, Lower Saxony, Germany

Now
63 °F

Mild.


Feels Like: 63 °F
Forecast: 56 / 62 °F
Wind: 6 mph from West

Location: Wunstorf Airport

Current Time: Sep 21, 2014 at 12:49:22 AM

Latest Report: Sep 21, 2014 at 12:20 AM


Visibility: 1 mi

Pressure: 29.92 "Hg

Humidity: 100%

Dew point: 63 °F

Location of Neustadt am RübenbergeLocation

Historic Weather in Neustadt am Rübenberge — Graph

°F

Neustadt am Rübenberge temperature yesterday

Maximum temperature yesterday: 70 °F (at 3:20 PM)
Minimum temperature yesterday: 61 °F (at 3:20 AM)
Average temperature yesterday: 64 °F

Past Weeks' High & Low Weather Summary

 TemperatureHumidityPressure
High77 °F (Sep 6, 2:20 PM)100% (Sep 5, 11:20 PM)30.21 "Hg (Sep 5, 11:20 PM)
Low48 °F (Sep 12, 4:20 AM)50% (Sep 12, 3:20 PM)29.86 "Hg (Sep 6, 4:20 PM)
Average62 °F84%30.03 "Hg
* Reported Sep 5 11:20 PM — Sep 20 11:20 PM, Neustadt am Rübenberge, Weather by CustomWeather, © 2014

Note: Actual official high and low records may vary slightly from our data, if they occured in-between our weather recording intervals... More about our weather records

Advertising

Neustadt am Rübenberge weather history for previous 24 hours

 ConditionsComfort  
Time TempWeatherWind HumidityBarometerVisibility
11:20 PM
Sep 20
64 °FMild.6 mph94%29.92 "Hg2 mi
10:20 PM64 °FMild.7 mph88%29.92 "Hg2 mi
9:20 PM64 °FMild.6 mph88%29.92 "Hg2 mi
8:20 PM66 °FMild.6 mph88%29.92 "Hg2 mi
7:20 PM66 °FMild.3 mph88%29.89 "Hg3 mi
3:20 PM70 °FBroken clouds.6 mph78%29.92 "Hg4 mi
2:20 PM66 °FFog.6 mph94%29.92 "Hg3 mi
1:20 PM66 °FFog.5 mph94%29.92 "Hg2 mi
12:20 PM64 °FFog.3 mph94%29.92 "Hg1 mi
11:20 AM64 °FFog.5 mph94%29.92 "Hg1 mi
10:20 AM64 °FFog.7 mph100%29.92 "Hg1 mi
9:20 AM64 °FFog.5 mph94%29.92 "Hg0 mi
8:20 AM63 °FFog.5 mph100%29.92 "Hg0 mi
7:20 AM63 °FMild.5 mph100%29.92 "Hg1 mi
6:20 AM63 °FMild.1 mph100%29.89 "Hg2 mi
5:20 AM63 °FMild.2 mph100%29.89 "Hg2 mi
4:20 AM63 °FMild.No wind100%29.89 "Hg3 mi
3:20 AM61 °FCool.No wind100%29.89 "Hg0 mi
2:20 AM63 °FMild.3 mph94%29.92 "Hg2 mi
1:20 AM63 °FMild.2 mph94%29.89 "Hg3 mi
12:20 AM63 °FMild.No wind94%29.89 "Hg2 mi
Weather by CustomWeather, © 2014

See weather overviewHow to use our weather pages